Location: Unspecified
(0.0000°N, 0.0000°E)
Time: 12:40:11
(UTC+00:00)

Hubble Space Telescope - Pass Details

Date: 31 March 2020
Orbit: 536 x 540 km, 28.5° (Epoch: 01 April)

Event Time Altitude Azimuth Distance (km) Brightness Sun altitude
Rises 20:23:36 0° 270° (W) 2,666 5.3 -34.8°
Reaches altitude 10° 20:26:31 10° 291° (WNW) 1,774 4.1 -35.5°
Enters shadow 20:26:57 12° 296° (WNW) 1,672 3.9 -35.6°
